Regional Weather Roundup
Issued by NWS New Orleans/Baton Rouge, LA

Home | Current Version | Previous Version | Text Only | Print | Product List | Glossary On
Versions: 1 2 3 4 5 6 7 8 9 10 11 12 13 14 15 16 17 18 19 20 21 22 23 24 25 26 27 28 29 30 31 32 33 34 35 36 37 38 39 40 41 42 43 44 45 46 47 48 49 50
948
ASUS44 KLIX 201612
RWRLIX
NEW ORLEANS REGIONAL WEATHER ROUNDUP
NATIONAL WEATHER SERVICE NEW ORLEANS LA
1100 AM CDT MON APR 20 2015

NOTE: "FAIR" INDICATES FEW OR NO CLOUDS BELOW 12,000 FEET WITH NO
      SIGNIFICANT WEATHER AND/OR OBSTRUCTIONS TO VISIBILITY.
      SKY/WX - SKY CONDITION AND SIGNIFICANT WEATHER.
      TMP - AIR TEMPERATURE.     DP    - DEWPOINT TEMPERATURE.
      RH  - RELATIVE HUMIDITY.   PRES  - PRESSURE.
      HI  - HEAT INDEX.          WCI   - WIND CHILL INDEX.

*  THESE STATIONS ARE NOT NWS OR FAA STATIONS AND ARE NOT UNDER
   NWS QUALITY CONTROL.

LAZ038-040-048-061>063-065>067-069-201700-
SOUTHEAST LOUISIANA

CITY           SKY/WX    TMP DP  RH WIND       PRES   REMARKS
N.O. AUDUBON     N/A     81  60  50 MISG        N/A
N.O. INTL ARPT PTSUNNY   75  58  55 N14G21    29.90R
N.O. LAKEFRONT PTSUNNY   76  59  55 NW16      29.90R
SLIDELL        PTSUNNY   76  57  51 W9        29.87S
BATON ROUGE    MOSUNNY   71  56  58 W9        29.92R
BOOTHVILLE     CLOUDY    76  67  73 NW10      29.90R
BELLE CHASSE   PTSUNNY   78  52  40 NW7       29.88R
BOGALUSA*        N/A     76  58  55 NW10      29.90R
GALLIANO*      MOSUNNY   79  60  50 MISG      29.90R
NEW ROADS*     PTSUNNY   68  56  64 W12       29.94R
GONZALES*        N/A     73  59  62 NW8       29.91R
HAMMOND*       MOSUNNY   73  55  53 NW8       29.91S
HOUMA*         MOSUNNY   77  59  53 NW7       29.90R
PORT FOURCHON* SUNNY     77  59  53 N10       29.93R

$$

MSZ070-080>082-201700-
SOUTHERN MISSISSIPPI

CITY           SKY/WX    TMP DP  RH WIND       PRES   REMARKS
MCCOMB         PTSUNNY   68  55  63 W9        29.91R
GULFPORT       PTSUNNY   75  60  59 W8        29.86S
BILOXI         CLOUDY    77  62  60 VRB3      29.86S
PASCAGOULA     CLOUDY    75  62  64 CALM      29.86R
STENNIS ARPT*  SUNNY     75  52  43 MISG      29.87S

$$

COASTAL OBSERVATIONS
LAKE AND NEARSHORE STATIONS

STATION/POSITION TIME  TEMP    WIND        PRES    WAVE
                       AIR SEA DIR/SP/G            HT/PER
                 (UTC) (F)     (DEG/KT/KT) (MB)    (FT/S)
PASCAGOULA       1500   73     310/  6/  7 1010.4
WAVELAND YACHT   1500   72 74  290/  5/  6 1011.3
GRAND ISLE       1500   74 76  340/ 14/ 16 1011.6
SOUTHWEST PASS   1500   72 63  280/ 11/ 13 1012.2
NEW CANAL        1500   75     290/  4/  9 1012.2
SHELL BEACH      1500   73 76  310/ 11/ 13 1011.2

OFFSHORE STATIONS

STATION/POSITION TIME  TEMP    WIND        PRES    WAVE
                       AIR SEA DIR/SP/G            HT/PER
                 (UTC) (F)     (DEG/KT/KT) (MB)    (FT/S)
64 S DAUPHIN ISL 1550   74 74  210/ 12/ 12 1011.7    4/ 8

$$




USA.gov is the U.S. government's official web portal to all federal, state and local government web resources and services.